Theta_e
326 325 324 328 341 348 348 345 343 338 338 341 345 344 343 342 339 338 338 338 334 338 332 338 336 344 339 343 343 343 340 338
324 324 324 329 335 345 348 345 341 338 337 342 342 340 340 340 340 338 338 335 333 329 331 331 332 336 335 334 336 338 336 336
327 329 329 328 332 339 341 347 343 341 339 343 342 340 340 338 339 339 338 336 332 331 329 330 330 334 334 332 333 335 335 336
323 327 329 329 329 332 333 333 347 345 344 344 343 343 342 341 341 340 338 337 333 331 330 331 331 333 334 332 331 333 335 336
320 325 327 329 329 330 334 341 346 348 347 347 350 346 345 343 342 341 339 336 336 333 332 332 332 333 331 333 330 332 335 337
320 321 325 329 329 328 337 348 351 350 348 347 347 348 347 345 345 344 342 339 337 336 335 332 333 332 332 332 331 330 332 336
317 320 322 326 328 329 332 340 351 351 351 350 348 346 344 344 344 345 346 342 339 340 336 336 333 333 333 332 332 331 329 330
316 319 322 322 325 325 330 332 346 350 352 348 346 345 345 345 344 344 346 345 343 338 340 337 336 335 331 331 329 330 328 331
317 318 319 325 328 333 332 332 336 344 341 340 338 338 336 338 340 341 344 348 344 342 340 339 339 335 332 331 329 327 328 328
315 316 318 318 324 332 332 331 333 339 339 335 332 331 332 333 337 341 343 347 347 343 341 340 337 336 332 332 331 327 327 326
313 315 317 319 326 332 332 332 333 334 334 333 332 332 331 335 336 338 342 346 346 345 341 340 338 336 334 332 330 326 323 324
311 312 315 320 326 330 330 332 333 335 335 330 331 330 329 328 336 340 342 345 345 344 342 340 340 338 334 333 332 328 327 324
309 309 310 314 324 324 330 333 332 331 334 333 332 329 331 333 338 340 340 341 343 343 341 339 339 340 338 334 331 329 329 328
308 310 310 311 313 319 319 328 331 330 332 335 332 332 333 335 339 338 337 337 339 342 343 342 340 339 338 334 333 331 331 330
308 309 310 312 311 312 315 322 327 333 332 336 334 333 334 336 339 337 336 334 334 336 339 339 340 340 338 335 334 332 330 329
306 308 311 312 313 312 312 313 322 330 333 339 338 336 342 340 340 338 336 335 334 337 339 339 340 340 337 337 335 331 330 329
306 308 310 312 313 314 314 315 320 334 334 336 338 335 341 339 337 337 336 335 337 339 340 337 339 339 337 335 333 330 329 327
307 307 309 310 311 315 317 323 330 332 333 334 338 340 343 339 338 336 336 335 337 338 338 339 337 336 334 331 329 328 328 327
310 310 319 321 320 321 320 327 332 335 338 339 340 342 343 341 340 339 338 338 339 339 339 336 335 335 334 328 327 329 326 325
309 312 324 329 329 331 330 335 337 339 340 340 341 342 344 342 340 341 341 338 339 338 336 335 334 332 332 329 328 329 325 324
Wind_Speed
18 17 12 15 18 14 16 17 16 16 11 8 6 6 5 6 7 7 7 6 6 7 4 7 5 14 6 9 7 5 5 5
9 8 7 13 10 14 12 14 14 12 8 9 8 8 7 6 9 11 8 6 7 5 6 6 6 6 6 5 4 6 6 7
9 14 8 5 18 7 5 14 16 15 11 8 9 10 9 9 9 11 10 9 8 8 5 6 7 7 7 7 6 8 8 10
10 18 3 6 5 10 17 9 10 13 12 11 10 9 10 9 9 11 15 10 9 8 9 7 8 9 8 8 8 9 8 9
11 11 19 12 7 9 20 7 6 12 15 10 8 9 8 10 10 12 15 13 11 12 9 9 7 9 8 9 8 5 7 9
11 7 10 17 16 20 28 15 13 10 8 7 6 6 6 7 9 9 14 15 14 12 9 10 6 6 9 7 8 8 8 8
10 10 8 9 15 12 13 17 19 17 10 7 6 6 5 5 5 7 13 14 15 12 10 7 10 6 7 8 5 8 4 4
14 13 10 11 11 13 12 9 15 13 9 6 3 4 5 5 7 6 10 12 15 14 8 8 9 9 5 4 5 4 4 4
17 13 8 9 8 9 11 12 10 10 4 5 4 5 4 3 5 8 8 11 14 13 9 8 7 9 7 6 4 6 2 3
16 19 18 10 10 11 12 13 11 8 7 4 4 4 4 4 6 9 8 11 13 13 11 7 8 5 6 6 5 3 2 4
14 10 8 8 9 13 14 14 14 11 10 4 2 2 1 1 3 7 6 10 12 12 10 8 6 5 5 5 6 7 4 2
17 14 8 6 7 7 10 10 10 9 9 6 8 8 7 6 4 4 5 9 10 11 10 8 6 5 6 5 5 5 5 4
11 12 10 9 9 7 7 9 11 11 11 11 9 6 5 4 3 7 5 6 8 9 8 7 6 4 5 7 6 6 4 4
12 11 11 10 9 10 10 10 13 14 14 12 11 10 8 5 4 5 4 4 4 8 9 6 6 5 5 5 6 7 5 4
13 15 11 14 10 10 9 11 15 15 14 13 12 10 9 8 8 7 8 4 3 5 6 5 4 5 4 6 6 6 6 3
12 13 16 16 16 13 10 10 10 12 12 12 9 10 5 5 8 8 6 5 5 6 7 6 6 5 5 6 4 4 5 5
18 18 11 14 15 16 15 15 11 12 14 10 8 7 7 9 10 8 6 5 6 7 8 7 6 7 7 7 4 5 5 5
19 12 9 9 9 10 12 13 15 13 11 10 8 8 9 11 11 9 9 7 7 7 7 7 7 6 7 7 5 4 6 4
18 10 6 7 7 8 9 9 12 10 10 8 9 8 12 12 10 9 9 7 7 9 8 7 7 8 8 6 5 6 6 6
23 17 16 4 8 8 11 10 13 12 10 8 8 8 12 12 10 11 9 8 8 9 9 8 8 7 7 7 6 6 7 6
Wind_Direction
173 192 196 179 172 163 165 166 163 167 176 166 175 182 184 189 185 181 181 191 198 201 193 205 200 209 207 210 211 213 208 208
194 215 187 78 38 143 158 162 161 171 169 174 173 177 184 188 196 188 183 196 197 199 196 193 189 193 192 192 195 204 212 217
95 83 65 54 105 58 273 181 169 170 172 176 178 186 187 194 190 194 192 195 197 199 199 187 190 184 188 198 199 205 213 221
129 115 101 96 56 154 211 219 169 165 177 176 184 187 189 187 193 195 199 195 197 196 205 199 187 189 186 197 204 204 211 214
262 154 156 161 149 98 303 217 184 187 186 181 175 184 186 189 195 193 197 197 193 198 199 205 189 189 188 197 209 199 212 216
271 227 177 178 179 170 206 197 185 189 188 194 189 189 182 185 195 192 197 197 197 196 197 202 187 172 194 190 202 213 216 209
273 273 219 180 173 179 177 175 184 186 187 196 194 187 205 195 193 192 200 198 195 195 200 190 189 183 189 198 195 209 195 189
256 255 243 225 195 181 173 164 169 171 171 167 184 197 217 204 216 215 184 199 194 197 192 180 181 200 193 174 173 189 166 172
250 252 259 263 229 177 167 158 167 161 150 162 183 204 201 211 219 223 189 193 189 191 193 180 170 192 191 183 166 182 176 143
245 257 257 233 228 198 170 170 166 166 160 171 164 173 202 190 209 222 199 182 184 183 182 172 185 156 183 178 161 120 136 165
231 234 239 261 225 193 176 180 180 179 178 148 134 53 344 220 228 222 200 166 164 172 178 182 171 171 175 177 160 153 154 210
237 232 227 208 236 196 170 176 178 183 179 174 180 205 209 231 186 204 162 161 159 156 165 163 163 177 171 163 159 147 124 166
228 220 217 212 175 204 203 183 190 194 192 196 191 190 197 193 172 162 143 147 151 147 155 166 166 167 177 157 152 151 155 145
220 221 224 222 197 187 191 190 202 202 200 192 182 179 189 186 146 149 137 128 138 152 160 153 153 162 161 164 160 162 157 161
271 252 230 229 221 205 198 191 203 202 197 192 187 176 182 183 161 151 144 138 132 149 124 138 148 157 172 156 143 151 160 162
272 268 232 218 218 216 204 199 197 187 191 186 167 172 157 163 157 155 146 154 147 154 137 156 163 169 148 135 138 149 161 179
271 260 232 213 217 221 217 224 217 182 181 160 157 160 154 148 137 141 146 140 160 158 163 158 153 152 145 150 153 162 165 179
271 256 252 241 207 192 198 186 173 166 153 153 155 160 150 146 143 150 156 165 164 149 145 146 147 148 133 139 157 186 167 177
314 295 235 243 211 178 164 147 135 139 144 150 150 157 155 145 150 150 156 148 144 142 141 144 147 145 151 149 171 171 163 168
318 340 300 332 153 138 140 137 135 139 145 139 146 136 142 140 143 145 143 140 133 136 141 153 154 153 143 158 167 160 172 182